StationID,Date,MaxTemp,MinTemp,Precipitation,Snowfall,SnowDepth
"CA002203914","1995-04-21",21.56,15.62,,,
"CA002203914","1995-04-22",30.92,8.96,,,
"CA002203914","1995-04-23",36.68,24.26,,,
"CA002203914","1995-04-24",33.26,17.24,,,
"CA002203914","1995-04-25",38.84,19.76,,,
"CA002203914","1995-04-26",43.16,33.62,,,
"CA002203914","1995-04-27",44.96,31.46,,,
"CA002203914","1995-04-28",37.04,26.24,,,
"CA002203914","1995-04-29",38.84,17.06,,,
"CA002203914","1995-04-30",44.96,30.02,,,
"CA002203914","1995-05-01",41.18,28.94,,,
"CA002203914","1995-05-02",41.90,29.12,,,
"CA002203914","1995-05-03",33.08,,,,
"CA002203914","1995-05-04",36.14,25.70,,,
"CA002203914","1995-05-05",33.26,20.30,,,
"CA002203914","1995-05-06",41.54,19.94,,,
"CA002203914","1995-05-07",38.66,26.96,,,
"CA002203914","1995-05-08",63.50,35.96,,,
"CA002203914","1995-05-09",51.26,34.16,,,
"CA002203914","1995-05-10",54.68,,,,
"CA002203914","1995-05-11",43.88,29.48,,,
"CA002203914","1995-05-12",32.54,28.58,,,
"CA002203914","1995-05-13",52.70,28.76,,,
"CA002203914","1995-05-14",46.04,30.38,,,
"CA002203914","1995-05-15",30.38,22.64,,,
"CA002203914","1995-05-16",28.76,22.28,,,
"CA002203914","1995-05-17",31.28,25.34,,,
"CA002203914","1995-05-18",30.74,24.62,,,
"CA002203914","1995-05-19",27.86,22.64,,,
"CA002203914","1995-05-20",27.50,23.90,,,
"CA002203914","1995-05-21",26.78,19.76,,,
"CA002203914","1995-05-22",21.92,17.06,,,
"CA002203914","1995-05-23",28.04,16.70,,,
"CA002203914","1995-05-24",44.06,17.78,,,
"CA002203914","1995-05-25",51.44,37.40,,,
"CA002203914","1995-05-26",47.84,32.54,,,
"CA002203914","1995-05-27",62.24,36.50,,,
"CA002203914","1995-05-28",54.86,33.08,,,
"CA002203914","1995-05-29",36.68,32.18,,,
"CA002203914","1995-05-30",35.24,30.74,,,
"CA002203914","1995-05-31",40.10,31.28,,,
"CA002203914","1995-06-01",35.42,31.28,,,
"CA002203914","1995-06-02",38.12,31.64,,,
"CA002203914","1995-06-03",35.78,30.92,,,
"CA002203914","1995-06-04",52.88,29.84,,,
"CA002203914","1995-06-05",71.42,39.20,,,
"CA002203914","1995-06-06",73.76,38.84,,,
"CA002203914","1995-06-07",71.24,43.88,,,
"CA002203914","1995-06-08",72.68,46.40,,,
"CA002203914","1995-06-09",59.72,44.96,,,
"CA002203914","1995-06-10",58.28,41.36,,,
"CA002203914","1995-06-11",65.30,40.10,,,
"CA002203914","1995-06-12",59.18,35.78,,,
"CA002203914","1995-06-17",68.72,35.60,,,
"CA002203914","1995-06-18",40.46,34.70,,,
"CA002203914","1995-06-19",47.12,36.32,,,
"CA002203914","1995-06-20",69.98,33.62,,,
"CA002203914","1995-06-21",62.42,40.28,,,
"CA002203914","1995-06-22",51.80,37.76,,,
"CA002203914","1995-06-23",67.82,46.04,,,
"CA002203914","1995-06-24",52.34,37.40,,,
"CA002203914","1995-06-25",46.94,35.78,,,
"CA002203914","1995-06-26",46.40,34.52,,,
"CA002203914","1995-06-27",41.54,34.88,,,
"CA002203914","1995-06-28",41.00,33.98,,,
"CA002203914","1995-06-29",53.06,34.16,,,
"CA002203914","1995-06-30",65.12,41.18,,,
"CA002203914","1995-07-01",64.22,48.74,,,
"CA002203914","1995-07-02",69.08,42.62,,,
"CA002203914","1995-07-03",70.16,48.20,,,
"CA002203914","1995-07-04",72.86,54.32,,,
"CA002203914","1995-07-05",75.74,54.50,,,
"CA002203914","1995-07-06",57.20,48.74,,,
"CA002203914","1995-07-07",61.52,45.32,,,
"CA002203914","1995-07-08",66.56,48.56,,,
"CA002203914","1995-07-09",63.50,50.90,,,
"CA002203914","1995-07-10",68.18,48.74,,,
"CA002203914","1995-07-11",71.06,49.82,,,
"CA002203914","1995-07-12",73.94,55.94,,,
"CA002203914","1995-07-13",73.22,54.50,,,
"CA002203914","1995-07-14",62.24,50.90,,,
"CA002203914","1995-07-15",65.84,49.46,,,
"CA002203914","1995-07-16",75.20,53.24,,,
"CA002203914","1995-07-17",72.86,57.74,,,
"CA002203914","1995-07-18",63.68,51.08,,,
"CA002203914","1995-07-19",61.16,50.36,,,
"CA002203914","1995-07-20",55.40,48.74,,,
"CA002203914","1995-07-22",50.90,43.34,,,
"CA002203914","1995-07-23",55.04,42.98,,,
"CA002203914","1995-07-24",50.72,41.72,,,
"CA002203914","1995-07-25",44.78,40.46,,,
"CA002203914","1995-07-27",46.58,41.90,,,
"CA002203914","1995-07-28",48.92,41.72,,,
"CA002203914","1995-07-29",55.04,40.82,,,
"CA002203914","1995-07-30",68.00,45.32,,,
"CA002203914","1995-07-31",51.98,41.00,,,
"CA002203914","1995-08-01",45.68,39.38,,,
"CA002203914","1995-08-02",52.70,40.10,,,
"CA002203914","1995-08-03",44.42,41.18,,,
"CA002203914","1995-08-04",49.28,39.56,,,
"CA002203914","1995-08-05",57.20,45.14,,,
"CA002203914","1995-08-06",63.68,44.42,,,
"CA002203914","1995-08-07",66.38,50.54,,,
"CA002203914","1995-08-08",60.44,51.80,,,
"CA002203914","1995-08-09",63.50,48.38,,,
"CA002203914","1995-08-10",59.18,47.30,,,
"CA002203914","1995-08-11",62.06,44.96,,,
"CA002203914","1995-08-12",67.64,49.82,,,
"CA002203914","1995-08-13",59.18,46.94,,,
"CA002203914","1995-08-14",49.46,46.40,,,
"CA002203914","1995-08-15",52.70,44.78,,,
"CA002203914","1995-08-16",58.10,41.90,,,
"CA002203914","1995-08-17",58.10,46.22,,,
"CA002203914","1995-08-18",65.48,45.32,,,
"CA002203914","1995-08-19",54.32,45.14,,,
"CA002203914","1995-08-20",47.66,41.72,,,
"CA002203914","1995-08-21",47.66,43.52,,,
"CA002203914","1995-08-22",54.32,45.86,,,
"CA002203914","1995-08-23",48.38,39.56,,,
"CA002203914","1995-08-24",45.14,39.92,,,
"CA002203914","1995-08-25",43.16,38.84,,,
"CA002203914","1995-08-26",40.28,35.42,,,
"CA002203914","1995-08-27",37.22,32.00,,,
"CA002203914","1995-08-28",39.38,35.60,,,
"CA002203914","1995-08-29",41.72,35.96,,,
"CA002203914","1995-08-30",40.46,35.24,,,
"CA002203914","1995-08-31",38.48,33.08,,,
"CA002203914","1995-09-01",42.08,30.92,,,
"CA002203914","1995-09-02",41.18,33.08,,,
"CA002203914","1995-09-03",39.20,30.56,,,
"CA002203914","1995-09-04",40.10,34.52,,,
"CA002203914","1995-09-06",37.76,30.56,,,
"CA002203914","1995-09-07",41.90,28.40,,,
"CA002203914","1995-09-08",44.24,39.02,,,
"CA002203914","1995-09-09",44.96,40.64,,,
"CA002203914","1995-09-10",54.14,39.02,,,
"CA002203914","1995-09-11",47.30,42.44,,,
"CA002203914","1995-09-12",48.20,36.50,,,
"CA002203914","1995-09-13",46.04,36.50,,,
"CA002203914","1995-09-14",44.42,35.60,,,
"CA002203914","1995-09-15",41.54,37.76,,,
"CA002203914","1995-09-16",39.92,36.68,,,
"CA002203914","1995-09-17",49.28,36.32,,,
"CA002203914","1995-09-18",57.38,38.12,,,
"CA002203914","1995-09-19",63.68,36.32,,,
"CA002203914","1995-09-20",53.96,43.52,,,
"CA002203914","1995-09-21",68.18,43.52,,,
"CA002203914","1995-09-22",69.80,50.72,,,
"CA002203914","1995-09-23",67.82,47.30,,,
"CA002203914","1995-09-24",52.70,44.96,,,
"CA002203914","1995-09-25",44.96,39.92,,,
"CA002203914","1995-09-26",46.76,39.38,,,
"CA002203914","1995-09-27",43.88,33.62,,,
"CA002203914","1995-09-28",35.06,30.02,,,
"CA002203914","1995-09-29",35.06,30.92,,,
"CA002203914","1995-09-30",33.62,27.32,,,
"CA002203914","1995-10-01",34.52,25.52,,,
"CA002203914","1995-10-02",31.82,28.40,,,
"CA002203914","1995-10-03",29.48,25.52,,,
"CA002203914","1995-10-04",30.74,23.54,,,
"CA002203914","1995-10-05",27.14,20.12,,,
"CA002203914","1995-10-06",30.74,26.24,,,
"CA002203914","1995-10-07",29.66,23.00,,,
"CA002203914","1995-10-08",30.38,23.90,,,
"CA002203914","1995-10-09",30.38,23.54,,,
"CA002203914","1995-10-10",24.08,21.20,,,
"CA002203914","1995-10-11",26.06,22.28,,,
"CA002203914","1995-10-12",23.54,20.12,,,
"CA002203914","1995-10-13",26.24,19.76,,,
"CA002203914","1995-10-14",29.48,25.70,,,
"CA002203914","1995-10-15",28.04,22.28,,,
"CA002203914","1995-10-16",23.90,16.52,,,
"CA002203914","1995-10-17",16.52,6.98,,,
"CA002203914","1995-10-18",19.58,5.36,,,
"CA002203914","1995-10-19",19.94,9.68,,,
"CA002203914","1995-10-20",23.54,18.68,,,
"CA002203914","1995-10-21",24.62,17.60,,,
"CA002203914","1995-10-22",17.78,6.62,,,
"CA002203914","1995-10-23",23.18,6.26,,,
"CA002203914","1995-10-24",26.24,21.74,,,
"CA002203914","1995-10-25",24.08,20.30,,,
"CA002203914","1995-10-26",25.88,20.66,,,
"CA002203914","1995-10-27",25.34,18.32,,,
"CA002203914","1995-10-28",18.32,-1.84,,,
"CA002203914","1995-10-29",7.88,-5.44,,,
"CA002203914","1995-10-30",20.66,-1.66,,,
"CA002203914","1995-10-31",25.34,16.88,,,
"CA002203914","1995-11-01",27.68,18.68,,,
"CA002203914","1995-11-02",29.48,25.52,,,
"CA002203914","1995-11-03",26.24,20.30,,,
"CA002203914","1995-11-04",20.30,9.32,,,
"CA002203914","1995-11-05",14.00,9.32,,,
"CA002203914","1995-11-06",12.20,-0.40,,,
"CA002203914","1995-11-07",0.32,-8.32,,,
"CA002203914","1995-11-08",17.78,0.32,,,
"CA002203914","1995-11-09",11.48,-14.62,,,
"CA002203914","1995-11-10",-3.64,-11.56,,,
"CA002203914","1995-11-11",-8.32,-15.70,,,
"CA002203914","1995-11-12",3.56,-17.32,,,
"CA002203914","1995-11-13",9.50,-11.74,,,
"CA002203914","1995-11-14",9.68,-12.64,,,
"CA002203914","1995-11-15",2.84,-10.84,,,
"CA002203914","1995-11-16",-2.74,-14.80,,,
"CA002203914","1995-11-17",8.24,-2.74,,,
"CA002203914","1995-11-18",10.40,1.76,,,
"CA002203914","1995-11-19",3.38,-16.06,,,
"CA002203914","1995-11-20",-4.00,-17.32,,,
"CA002203914","1995-11-21",-15.34,-27.04,,,
"CA002203914","1995-11-22",-23.26,-27.58,,,
"CA002203914","1995-11-23",-23.98,-28.30,,,
"CA002203914","1995-11-24",-20.38,-28.12,,,
"CA002203914","1995-11-25",-7.78,-25.96,,,
"CA002203914","1995-11-26",0.86,-18.04,,,
"CA002203914","1995-11-27",11.48,-10.66,,,
"CA002203914","1995-11-28",21.20,11.48,,,
"CA002203914","1995-11-29",14.90,3.92,,,
"CA002203914","1995-11-30",4.82,-9.40,,,
"CA002203914","1995-12-01",-4.18,-13.36,,,
"CA002203914","1995-12-02",-10.84,-17.32,,,
"CA002203914","1995-12-03",-14.26,-19.48,,,
"CA002203914","1995-12-04",-14.44,-22.36,,,
"CA002203914","1995-12-05",-12.64,-22.18,,,
"CA002203914","1995-12-06",-6.34,-27.40,,,
"CA002203914","1995-12-07",-2.20,-13.36,,,
"CA002203914","1995-12-08",-13.00,-27.22,,,
"CA002203914","1995-12-09",-17.14,-26.86,,,
"CA002203914","1995-12-10",-16.42,-21.82,,,
"CA002203914","1995-12-11",-16.60,-25.96,,,
"CA002203914","1995-12-12",-8.32,-27.76,,,
"CA002203914","1995-12-13",-8.14,-25.42,,,
"CA002203914","1995-12-14",-24.88,-36.22,,,
"CA002203914","1995-12-15",-32.80,-36.22,,,
"CA002203914","1995-12-16",-34.78,-40.54,,,
"CA002203914","1995-12-17",-30.64,-37.48,,,
"CA002203914","1995-12-18",-28.84,-32.26,,,
"CA002203914","1995-12-19",-20.56,-31.00,,,
"CA002203914","1995-12-20",-13.00,-20.92,,,
"CA002203914","1995-12-21",-6.52,-14.08,,,
"CA002203914","1995-12-22",-6.88,-16.42,,,
"CA002203914","1995-12-23",-9.94,-15.88,,,
"CA002203914","1995-12-24",-8.32,-15.52,,,
"CA002203914","1995-12-25",-0.76,-14.08,,,
"CA002203914","1995-12-26",3.74,-6.88,,,
"CA002203914","1995-12-27",6.98,-0.94,,,
"CA002203914","1995-12-28",-0.76,-4.72,,,
"CA002203914","1995-12-29",-3.46,-30.64,,,
"CA002203914","1995-12-30",-22.36,-25.96,,,
"CA002203914","1996-01-01",-6.88,-18.40,,,
"CA002203914","1996-01-02",-7.06,-20.02,,,
"CA002203914","1996-01-03",10.22,-11.02,,,
"CA002203914","1996-01-04",8.06,0.14,,,
"CA002203914","1996-01-05",5.36,-4.72,,,
"CA002203914","1996-01-06",-3.46,-13.00,,,
"CA002203914","1996-01-07",-13.00,-23.98,,,
"CA002203914","1996-01-08",-22.90,-36.40,,,
"CA002203914","1996-01-09",-25.60,-35.86,,,
"CA002203914","1996-01-10",-24.52,-31.72,,,
"CA002203914","1996-01-11",-18.94,-31.90,,,
"CA002203914","1996-01-12",-5.62,-22.00,,,
"CA002203914","1996-01-13",-5.98,-12.64,,,
"CA002203914","1996-01-14",-1.48,-7.24,,,
"CA002203914","1996-01-15",-3.64,-34.60,,,
"CA002203914","1996-01-16",-34.42,-41.80,,,
"CA002203914","1996-01-17",-23.98,-36.40,,,
"CA002203914","1996-01-18",-18.94,-30.28,,,
"CA002203914","1996-01-20",1.04,-5.26,,,
"CA002203914","1996-01-21",-5.08,-21.64,,,
"CA002203914","1996-01-22",-11.38,-22.00,,,
"CA002203914","1996-01-23",-17.14,-22.54,,,
"CA002203914","1996-01-24",-7.78,-21.64,,,
"CA002203914","1996-01-25",-9.94,-29.38,,,
"CA002203914","1996-01-26",-27.40,-36.40,,,
"CA002203914","1996-01-27",-25.06,-34.78,,,
"CA002203914","1996-01-28",-9.58,-27.22,,,
"CA002203914","1996-01-29",4.82,-21.10,,,
"CA002203914","1996-01-30",9.68,-5.62,,,
"CA002203914","1996-01-31",13.10,-6.70,,,
"CA002203914","1996-02-01",12.02,-6.16,,,
"CA002203914","1996-02-02",-2.92,-19.48,,,
"CA002203914","1996-02-03",-9.76,-22.36,,,
"CA002203914","1996-02-04",-20.56,-36.04,,,
"CA002203914","1996-02-05",-11.20,-36.58,,,
"CA002203914","1996-02-06",-11.38,-14.44,,,
"CA002203914","1996-02-07",-11.20,-18.76,,,
"CA002203914","1996-02-08",-7.42,-18.40,,,
"CA002203914","1996-02-09",-14.44,-29.38,,,
"CA002203914","1996-02-10",-8.32,-15.52,,,
"CA002203914","1996-02-11",-11.38,-18.94,,,
"CA002203914","1996-02-12",-18.94,-29.20,,,
"CA002203914","1996-02-13",-24.52,-32.80,,,
"CA002203914","1996-02-14",-10.48,-26.50,,,
"CA002203914","1996-02-15",-7.78,-18.58,,,
"CA002203914","1996-02-16",4.64,-20.92,,,
"CA002203914","1996-02-17",2.30,-12.46,,,
"CA002203914","1996-02-18",9.32,-16.42,,,
"CA002203914","1996-02-19",12.38,-9.94,,,
"CA002203914","1996-02-20",-6.52,-21.10,,,
"CA002203914","1996-02-21",-20.02,-34.24,,,
"CA002203914","1996-02-22",-27.22,-36.04,,,
"CA002203914","1996-02-23",-28.12,-38.02,,,
"CA002203914","1996-02-24",-9.58,-29.56,,,
"CA002203914","1996-02-25",14.72,-9.76,,,
"CA002203914","1996-02-26",20.30,8.42,,,
"CA002203914","1996-02-27",20.66,8.96,,,
"CA002203914","1996-02-28",15.08,0.68,,,
"CA002203914","1996-02-29",2.84,-10.12,,,
"CA002203914","1996-03-01",7.16,-6.16,,,
"CA002203914","1996-03-02",-1.30,-24.16,,,
"CA002203914","1996-03-03",3.92,-24.52,,,
"CA002203914","1996-03-04",10.04,-14.26,,,
"CA002203914","1996-03-05",-9.76,-29.02,,,
"CA002203914","1996-03-06",7.70,-11.74,,,
"CA002203914","1996-03-07",8.24,-5.62,,,
"CA002203914","1996-03-08",7.70,-5.44,,,
"CA002203914","1996-03-09",8.06,-19.12,,,
"CA002203914","1996-03-10",-14.08,-29.92,,,
"CA002203914","1996-03-11",-14.80,-33.52,,,
"CA002203914","1996-03-12",-4.90,-30.10,,,
"CA002203914","1996-03-13",-15.16,-26.32,,,
"CA002203914","1996-03-14",-4.90,-23.62,,,
"CA002203914","1996-03-15",-5.08,-15.52,,,
"CA002203914","1996-03-16",-14.08,-30.10,,,
"CA002203914","1996-03-17",-22.90,-33.52,,,
"CA002203914","1996-03-18",-15.52,-34.60,,,
"CA002203914","1996-03-19",-15.16,-30.82,,,
"CA002203914","1996-03-20",-5.26,-23.62,,,
"CA002203914","1996-03-21",2.30,-12.82,,,
"CA002203914","1996-03-22",6.62,-5.62,,,
"CA002203914","1996-03-23",9.14,-4.54,,,
"CA002203914","1996-03-24",14.00,3.02,,,
"CA002203914","1996-03-25",18.86,13.10,,,
"CA002203914","1996-03-26",28.22,7.52,,,
"CA002203914","1996-03-27",24.44,12.20,,,
"CA002203914","1996-03-28",12.56,8.06,,,
"CA002203914","1996-03-29",9.86,-0.40,,,
"CA002203914","1996-03-30",5.72,-12.28,,,
"CA002203914","1996-03-31",-3.28,-22.54,,,
"CA002203914","1996-04-01",-8.86,-20.38,,,
"CA002203914","1996-04-02",-2.56,-20.92,,,
"CA002203914","1996-04-03",-5.26,-17.32,,,
"CA002203914","1996-04-04",2.48,-20.74,,,
"CA002203914","1996-04-05",14.00,-1.48,,,
"CA002203914","1996-04-06",16.34,2.48,,,
"CA002203914","1996-04-07",16.16,-4.36,,,
"CA002203914","1996-04-08",10.58,-6.70,,,
"CA002203914","1996-04-09",1.40,-14.44,,,
"CA002203914","1996-04-10",6.08,-0.58,,,
"CA002203914","1996-04-11",3.02,-9.22,,,
"CA002203914","1996-04-12",7.52,-20.56,,,
"CA002203914","1996-04-13",1.40,-22.00,,,
"CA002203914","1996-04-14",1.40,-20.38,,,
"CA002203914","1996-04-15",3.38,-6.34,,,
"CA002203914","1996-04-16",14.54,-6.88,,,
"CA002203914","1996-04-17",7.70,-2.20,,,
"CA002203914","1996-04-18",6.44,-7.60,,,
"CA002203914","1996-04-19",10.58,-9.94,,,
"CA002203914","1996-04-20",13.64,-8.68,,,
"CA002203914","1996-04-21",19.76,4.10,,,
"CA002203914","1996-04-22",11.12,5.72,,,
"CA002203914","1996-04-23",7.70,-0.22,,,
"CA002203914","1996-04-24",6.98,-1.12,,,
"CA002203914","1996-04-25",7.34,1.40,,,
"CA002203914","1996-04-26",9.68,4.28,,,
"CA002203914","1996-04-27",12.20,-6.52,,,
"CA002203914","1996-04-28",29.30,7.88,,,
"CA002203914","1996-04-29",24.98,14.72,,,
"CA002203914","1996-04-30",23.18,13.10,,,
"CA002203914","1996-05-01",26.06,18.86,,,
"CA002203914","1996-05-02",21.74,2.12,,,
"CA002203914","1996-05-03",7.88,-3.28,,,
"CA002203914","1996-05-04",7.52,-14.08,,,
"CA002203914","1996-05-05",9.32,-0.94,,,
"CA002203914","1996-05-06",13.28,-5.80,,,
"CA002203914","1996-05-07",14.72,-4.54,,,
"CA002203914","1996-05-08",30.02,2.12,,,
"CA002203914","1996-05-09",35.42,21.56,,,
"CA002203914","1996-05-10",34.88,24.98,,,
"CA002203914","1996-05-11",34.16,32.36,,,
"CA002203914","1996-05-12",32.36,22.28,,,
"CA002203914","1996-05-13",30.20,18.68,,,
"CA002203914","1996-05-14",27.50,19.76,,,
"CA002203914","1996-05-15",28.04,19.40,,,
"CA002203914","1996-05-16",23.54,19.94,,,
"CA002203914","1996-05-17",21.56,14.54,,,
"CA002203914","1996-05-18",21.02,8.60,,,
"CA002203914","1996-05-19",29.84,11.30,,,
"CA002203914","1996-05-20",32.00,23.00,,,
"CA002203914","1996-05-21",34.52,27.68,,,
"CA002203914","1996-05-22",42.44,26.78,,,
"CA002203914","1996-05-23",45.50,28.58,,,
"CA002203914","1996-05-24",52.88,36.68,,,
"CA002203914","1996-05-25",60.98,32.72,,,
"CA002203914","1996-05-26",32.72,30.20,,,
"CA002203914","1996-05-27",32.72,28.76,,,
"CA002203914","1996-05-28",36.32,27.14,,,
"CA002203914","1996-05-29",41.36,27.68,,,
"CA002203914","1996-05-30",48.20,28.40,,,
"CA002203914","1996-05-31",42.62,32.00,,,
"CA002203914","1996-06-01",58.10,29.84,,,
"CA002203914","1996-06-02",50.00,33.26,,,
"CA002203914","1996-06-03",41.72,30.20,,,
"CA002203914","1996-06-04",34.16,24.80,,,
"CA002203914","1996-06-05",44.60,24.08,,,
"CA002203914","1996-06-06",46.22,38.66,,,
"CA002203914","1996-06-07",49.82,34.34,,,
"CA002203914","1996-06-08",44.42,33.98,,,
"CA002203914","1996-06-09",59.18,33.44,,,
"CA002203914","1996-06-10",46.40,35.60,,,
"CA002203914","1996-06-11",46.58,36.50,,,
"CA002203914","1996-06-12",46.94,33.08,,,
"CA002203914","1996-06-13",58.28,34.52,,,
"CA002203914","1996-06-14",62.96,41.36,,,
"CA002203914","1996-06-15",63.14,39.92,,,
"CA002203914","1996-06-16",77.72,44.24,,,
"CA002203914","1996-06-18",55.58,36.50,,,
"CA002203914","1996-06-19",66.20,38.84,,,
"CA002203914","1996-06-20",77.18,48.56,,,
"CA002203914","1996-06-21",53.42,40.28,,,
"CA002203914","1996-06-22",75.02,41.90,,,
"CA002203914","1996-06-23",49.82,35.60,,,
"CA002203914","1996-06-24",52.16,35.24,,,
"CA002203914","1996-06-25",57.02,39.38,,,
"CA002203914","1996-06-26",45.68,37.58,,,
"CA002203914","1996-06-27",48.92,37.40,,,
"CA002203914","1996-06-28",48.92,37.94,,,
"CA002203914","1996-06-29",41.18,35.78,,,
"CA002203914","1996-06-30",39.56,35.60,,,
"CA002203914","1996-07-01",40.28,37.58,,,
"CA002203914","1996-07-02",39.38,36.86,,,
"CA002203914","1996-07-03",42.26,37.04,,,
"CA002203914","1996-07-04",55.76,38.84,,,
"CA002203914","1996-07-05",70.52,46.04,,,
"CA002203914","1996-07-06",77.18,54.32,,,
"CA002203914","1996-07-07",63.68,46.58,,,
"CA002203914","1996-07-08",60.08,39.20,,,
"CA002203914","1996-07-09",39.74,35.06,,,
"CA002203914","1996-07-10",46.22,36.14,,,
"CA002203914","1996-07-11",59.36,40.64,,,
"CA002203914","1996-07-12",67.82,48.20,,,
"CA002203914","1996-07-13",73.04,51.26,,,
"CA002203914","1996-07-14",61.88,44.96,,,
"CA002203914","1996-07-15",57.02,43.52,,,
"CA002203914","1996-07-16",64.22,49.64,,,
"CA002203914","1996-07-17",68.18,48.38,,,
"CA002203914","1996-07-18",61.52,45.86,,,
"CA002203914","1996-07-19",76.64,47.12,,,
"CA002203914","1996-07-20",57.56,43.52,,,
"CA002203914","1996-07-21",66.02,39.74,,,
"CA002203914","1996-07-22",64.04,39.02,,,
"CA002203914","1996-07-23",58.46,37.40,,,
"CA002203914","1996-07-24",75.20,52.88,,,
"CA002203914","1996-07-25",72.14,58.46,,,
"CA002203914","1996-07-26",78.08,58.64,,,
"CA002203914","1996-07-27",67.46,48.02,,,
"CA002203914","1996-07-28",58.28,47.84,,,
"CA002203914","1996-07-29",55.40,46.04,,,
"CA002203914","1996-07-30",50.72,43.34,,,
"CA002203914","1996-07-31",47.66,41.36,,,
"CA002203914","1996-08-01",62.06,44.24,,,
"CA002203914","1996-08-02",66.02,52.34,,,
"CA002203914","1996-08-03",52.52,47.30,,,
"CA002203914","1996-08-04",48.74,42.62,,,
"CA002203914","1996-08-05",52.34,40.82,,,
"CA002203914","1996-08-06",50.18,37.94,,,
"CA002203914","1996-08-07",48.20,43.70,,,
"CA002203914","1996-08-08",46.58,41.00,,,
"CA002203914","1996-08-09",42.80,37.94,,,
"CA002203914","1996-08-10",40.10,34.16,,,
"CA002203914","1996-08-11",43.52,34.70,,,
"CA002203914","1996-08-12",58.10,36.86,,,
"CA002203914","1996-08-13",66.02,46.94,,,
"CA002203914","1996-08-14",56.30,43.34,,,
"CA002203914","1996-08-15",49.46,39.20,,,
"CA002203914","1996-08-16",58.82,39.92,,,
"CA002203914","1996-08-17",48.02,36.32,,,
"CA002203914","1996-08-18",40.28,34.52,,,
"CA002203914","1996-08-19",37.22,32.36,,,
"CA002203914","1996-08-20",36.14,30.92,,,
"CA002203914","1996-08-21",37.04,31.46,,,
"CA002203914","1996-08-22",35.24,30.38,,,
"CA002203914","1996-08-23",46.76,29.66,,,
"CA002203914","1996-08-24",56.66,36.32,,,
"CA002203914","1996-08-25",59.00,44.42,,,
"CA002203914","1996-08-26",46.76,31.64,,,
"CA002203914","1996-08-27",37.58,32.72,,,
"CA002203914","1996-08-28",47.30,30.02,,,
"CA002203914","1996-08-29",54.32,31.64,,,
"CA002203914","1996-08-30",51.98,38.12,,,
"CA002203914","1996-08-31",52.16,39.02,,,
"CA002203914","1996-09-01",39.20,33.62,,,
"CA002203914","1996-09-02",34.88,29.30,,,
"CA002203914","1996-09-03",39.56,29.66,,,
"CA002203914","1996-09-04",32.00,27.86,,,
"CA002203914","1996-09-05",32.18,26.78,,,
"CA002203914","1996-09-06",48.20,29.48,,,
"CA002203914","1996-09-07",39.92,26.42,,,
"CA002203914","1996-09-08",31.64,25.88,,,
"CA002203914","1996-09-09",35.06,29.66,,,
"CA002203914","1996-09-10",36.14,29.48,,,
"CA002203914","1996-09-11",31.46,27.50,,,
"CA002203914","1996-09-12",34.34,30.38,,,
"CA002203914","1996-09-13",33.08,29.84,,,
"CA002203914","1996-09-14",36.68,29.48,,,
"CA002203914","1996-09-15",34.88,32.00,,,
"CA002203914","1996-09-16",34.88,29.84,,,
"CA002203914","1996-09-17",46.40,30.20,,,
"CA002203914","1996-09-18",55.40,33.08,,,
"CA002203914","1996-09-19",33.26,29.84,,,
"CA002203914","1996-09-20",30.92,29.12,,,
"CA002203914","1996-09-21",35.78,27.32,,,
"CA002203914","1996-09-22",35.60,28.22,,,
"CA002203914","1996-09-23",38.30,31.64,,,
"CA002203914","1996-09-24",35.06,31.64,,,
"CA002203914","1996-09-25",35.24,30.92,,,
"CA002203914","1996-09-26",33.80,17.42,,,
"CA002203914","1996-09-27",21.02,17.60,,,
"CA002203914","1996-09-28",21.56,11.30,,,
"CA002203914","1996-09-29",23.36,14.72,,,
"CA002203914","1996-09-30",29.84,23.36,,,
"CA002203914","1996-10-01",28.58,14.36,,,
"CA002203914","1996-10-02",16.88,9.32,,,
"CA002203914","1996-10-03",23.72,15.44,,,
"CA002203914","1996-10-04",27.32,18.32,,,
"CA002203914","1996-10-05",31.10,17.78,,,
"CA002203914","1996-10-06",23.72,7.88,,,
"CA002203914","1996-10-07",13.82,7.88,,,
"CA002203914","1996-10-08",13.28,10.40,,,
"CA002203914","1996-10-09",20.48,11.66,,,
"CA002203914","1996-10-10",26.78,15.08,,,
"CA002203914","1996-10-11",16.70,4.46,,,
"CA002203914","1996-10-12",16.34,7.52,,,
"CA002203914","1996-10-13",19.40,12.74,,,
"CA002203914","1996-10-14",21.20,7.70,,,
"CA002203914","1996-10-15",12.56,3.38,,,
"CA002203914","1996-10-16",7.70,1.58,,,
"CA002203914","1996-10-17",16.34,1.22,,,
"CA002203914","1996-10-18",23.72,16.34,,,
"CA002203914","1996-10-19",23.18,19.94,,,
"CA002203914","1996-10-20",21.56,13.64,,,
"CA002203914","1996-10-22",5.54,-22.00,,,
"CA002203914","1996-10-23",-10.30,-23.98,,,
"CA002203914","1996-10-24",-10.84,-23.98,,,
"CA002203914","1996-10-25",-18.40,-27.40,,,
"CA002203914","1996-10-26",-13.54,-27.58,,,
"CA002203914","1996-10-27",-11.02,-28.84,,,
"CA002203914","1996-10-28",-8.50,-33.16,,,
"CA002203914","1996-10-29",19.58,-9.94,,,
"CA002203914","1996-10-30",24.08,12.38,,,
"CA002203914","1996-10-31",24.08,2.30,,,
"CA002203914","1996-11-01",18.68,-4.18,,,
"CA002203914","1996-11-02",10.94,-16.60,,,
"CA002203914","1996-11-03",-2.38,-18.94,,,
"CA002203914","1996-11-04",1.40,-8.68,,,
"CA002203914","1996-11-05",1.94,-13.36,,,